Location: Aiglières
(44.2167°N, 6.7333°E)
Time: 22:22:54
(UTC+00:00)

Daily predictions for brighter satellites

Satellite Brightness Start Highest point End
(mag) Time Altitude Azimuth Time Altitude Azimuth Time Altitude Azimuth
MOS 1-B Rocket 4.2 19:43:55 10° S 19:50:15 75° WSW 19:55:58 10° NNW
Okean-O 2.7 19:46:53 10° SSE 19:51:14 67° ENE 19:55:37 10° N
Genesis I 2.8 19:48:20 10° SSW 19:51:49 73° ESE 19:55:21 10° NE
Cosmos 1092 Rocket 4.1 19:48:23 10° S 19:54:43 88° E 20:01:07 10° N
Cosmos 540 Rocket 4.1 19:51:41 10° N 19:56:35 41° ENE 20:01:24 10° SE
Cosmos 1954 Rocket 4.5 19:53:58 10° S 19:58:54 41° ESE 20:03:49 10° NE
USA 245 4.4 19:57:09 10° ESE 19:59:57 26° ENE 20:03:21 10° N
PSLV R/B 4.5 19:57:21 10° S 20:00:48 47° W 20:04:13 10° NNW
Tiangong -1.8 19:58:57 10° W 20:02:01 47° S 20:05:05 10° ESE
Terra 2.7 19:59:29 10° SE 20:03:41 33° ENE 20:07:55 10° N
Cosmos 1707 3.0 20:03:13 10° SSE 20:06:38 41° E 20:10:02 10° NNE
Cosmos 1515 Rocket 3.5 20:03:11 10° S 20:07:27 67° E 20:11:46 10° NNE
SL-4 R/B 2.9 20:04:35 10° W 20:08:14 50° NNW 20:12:09 10° NE
Cosmos 1633 Rocket 3.8 20:06:38 10° NNW 20:10:55 52° W 20:15:09 10° S
Cosmos 1190 Rocket 4.0 20:06:48 10° S 20:12:04 72° ESE 20:17:23 10° NNE
Okean O Rocket 3.0 20:11:01 10° SSW 20:15:04 36° W 20:19:09 10° NNW
SeaSat 1 2.6 20:12:16 10° SE 20:17:04 68° ENE 20:21:58 10° NNW
Cosmos 1766 3.8 20:14:45 10° NNW 20:18:27 55° W 20:22:07 10° S
EXPRESS MD2 2.2 20:16:23 10° WSW 20:19:42 82° SSE 20:22:00 10° ENE
CZ-4 R/B 4.4 20:21:24 10° WSW 20:22:24 11° W 20:23:24 10° WNW
Cosmos 1470 Rocket 4.0 20:18:37 10° NNW 20:22:57 63° W 20:27:12 10° S
USA 234 3.3 20:16:50 10° NE 20:23:25 85° SE 20:29:57 10° SW
Cosmos 1869 Rocket 4.2 20:21:30 10° N 20:25:43 41° ENE 20:29:11 14° SE
IRS-1A Rocket 4.2 20:23:32 10° SSE 20:29:02 86° ENE 20:34:35 10° NNW
MOS 1 Rocket 4.0 20:26:39 13° SE 20:31:19 51° ENE 20:36:29 10° N
Cosmos 2360 Rocket 3.8 20:27:00 10° N 20:31:35 24° NE 20:36:07 10° ESE
Cosmos 2333 Rocket 3.8 20:31:40 10° N 20:36:21 25° NE 20:41:00 10° ESE
Cosmos 841 Rocket 4.2 20:31:50 10° N 20:36:49 41° ENE 20:40:43 16° SE
ERS-1 Rocket 3.0 20:33:11 12° SSE 20:37:50 84° ENE 20:42:53 10° NNW
Atlas Centaur 2 3.8 20:31:03 10° SW 20:37:58 30° S 20:43:36 14° SE
Cosmos 1441 Rocket 3.0 20:35:40 10° N 20:39:17 71° E 20:41:54 18° SSE
SL-16 R/B 2.7 20:34:05 10° NNW 20:39:36 50° ENE 20:43:56 16° SE
Resurs 01 Rocket 4.2 20:37:11 10° SW 20:39:59 17° W 20:42:48 10° NW
Cosmos 1763 Rocket 3.9 20:35:46 10° NNW 20:40:57 61° WSW 20:45:43 12° S
Cosmos 2369 4.3 20:35:36 10° NNW 20:41:11 54° WSW 20:46:32 11° S
In-Cosmos 22 4.2 20:36:15 10° S 20:41:51 65° E 20:47:21 10° NNE
Spot 2 Rocket 3.5 20:38:13 15° SSE 20:42:25 69° ENE 20:47:30 10° N
Cosmos 2082 Rocket 3.2 20:37:01 10° SW 20:42:34 51° WNW 20:48:08 10° NNE
RESURS DK-1 3.7 20:39:20 10° N 20:42:52 27° NE 20:45:34 14° ESE
SL-14 R/B 4.4 20:42:16 19° SE 20:43:59 26° E 20:47:10 10° NNE
SPOT 5 3.4 20:43:03 10° S 20:47:12 46° W 20:51:24 10° NNW
Cosmos 1933 Rocket 3.8 20:42:51 10° NNW 20:47:16 68° W 20:51:18 12° S
Cosmos 1470 3.2 20:44:14 10° NNW 20:47:50 53° W 20:51:09 12° S
Cosmos 1417 Rocket 4.5 20:41:59 10° N 20:48:13 79° E 20:53:26 15° SSE
Cosmos 1300 3.7 20:48:15 10° NNE 20:51:23 28° ENE 20:52:53 21° ESE
Cosmos 1908 3.3 20:51:28 10° NNW 20:55:03 64° W 20:57:41 17° S
Cosmos 1346 Rocket 3.8 20:56:29 10° N 20:59:57 30° ENE 21:01:35 22° ESE
ATLAS 2AS CENTAUR R/B 3.5 20:55:48 10° NNW 21:02:17 42° NE 21:07:52 13° ESE
Meteor 1-22 Rocket 4.2 20:58:34 10° N 21:04:13 83° E 21:08:27 19° SSE
Ariane Rocket 3.1 21:03:07 18° S 21:06:57 76° WSW 21:12:04 10° NNW
Meteor 1-4 Rocket 4.1 21:09:50 15° E 21:09:50 15° E 21:11:18 10° NE
Cosmos 1758 3.4 21:07:19 10° N 21:11:11 56° E 21:12:54 30° SE
Cosmos 1356 Rocket 3.7 21:09:23 26° SSE 21:11:24 50° E 21:15:28 10° NNE
SPOT 3 Rocket 3.7 21:12:14 19° S 21:15:54 70° WSW 21:21:04 10° NNW
Cosmos 1850 Rocket 4.0 21:13:25 17° S 21:17:20 62° ESE 21:22:30 10° NNE
Cosmos 1707 Rocket 3.7 21:16:09 26° SSE 21:18:29 59° E 21:22:52 10° NNE
SL-27 R/B 2.9 21:19:33 31° E 21:19:33 31° E 21:21:41 10° NE
ARIANE 5 R/B 4.1 21:17:31 18° ESE 21:19:26 24° ENE 21:22:53 10° NNE
Cosmos 1980 Rocket 4.3 21:19:45 10° WNW 21:23:32 19° W 21:27:19 10° SW
Cosmos 2322 Rocket 2.3 21:18:34 10° NNW 21:24:16 70° ENE 21:27:28 27° SE
S3M 4.3 21:17:57 10° NNW 21:24:16 68° W 21:29:06 18° S
Meteor 1-21 4.3 21:21:06 22° S 21:24:48 64° E 21:30:32 10° NNE
Spot 1 4.2 21:20:43 10° NNE 21:25:13 88° ESE 21:28:33 20° SSW
Cosmos 1655 Rocket 4.0 21:22:56 16° S 21:28:14 89° WNW 21:34:40 10° N
SJ 16-02 2.0 21:28:54 32° SE 21:29:51 36° ESE 21:33:49 10° NE
Landsat 5 3.4 21:28:38 10° N 21:32:37 80° WNW 21:35:02 24° SSW
Cosmos 2278 4.3 21:27:32 10° NW 21:33:03 51° WSW 21:36:26 23° S
Cosmos 1741 Rocket 3.9 21:31:50 17° SSW 21:35:52 85° ESE 21:41:13 10° NNE
USA 281 3.6 21:32:45 22° SE 21:36:55 54° ENE 21:43:18 10° NNW
Cosmos 1400 Rocket 3.9 21:35:14 13° SW 21:38:25 40° WNW 21:42:05 10° N
Tiangong -0.2 21:35:58 10° WSW 21:37:28 18° SW 21:37:28 18° SW
MetOp-A 4.1 21:37:25 29° S 21:40:09 79° WSW 21:45:27 10° NNW
Okean 3 3.4 21:39:26 39° SSE 21:40:50 68° E 21:44:58 10° NNE
Terra 3.4 21:37:47 13° SSW 21:41:16 28° W 21:45:20 10° NW
Cosmos 1733 Rocket 3.0 21:38:03 10° N 21:42:28 83° W 21:44:16 36° S
GP-B 4.1 21:39:49 10° NNE 21:43:47 31° E 21:44:46 28° ESE
Cosmos 968 Rocket 3.4 21:41:01 26° S 21:43:54 74° ESE 21:49:05 10° NNE
Cosmos 2228 Rocket 3.6 21:44:42 21° SSW 21:47:35 60° W 21:52:07 10° N
SL-4 R/B 4.0 21:44:12 10° WNW 21:47:38 28° N 21:51:16 10° ENE
Cosmos 1814 Rocket 4.3 21:42:25 10° NNW 21:47:40 58° ENE 21:50:00 32° SE
Cosmos 1315 Rocket 3.1 21:51:04 44° SE 21:51:41 49° E 21:55:33 10° NNE
Cosmos 2219 Rocket 2.8 21:47:26 10° NNW 21:52:57 49° ENE 21:55:47 27° ESE
ATLAS CENTAUR R/B 0.9 21:52:13 35° SW 21:53:34 80° NW 21:57:09 10° NNE
Cosmos 1908 Rocket 4.2 21:49:39 10° N 21:53:47 41° ENE 21:54:53 34° ESE
Cosmos 1244 Rocket 4.5 21:52:52 30° S 21:56:06 72° E 22:02:23 10° NNE
Meteor 2-10 Rocket 4.4 21:52:08 10° NNW 21:57:27 46° W 22:00:34 22° SSW
Cosmos 1953 2.5 21:56:32 10° N 22:00:18 51° ENE 22:00:51 46° ESE
H-2A R/B 3.6 21:59:30 29° ESE 22:00:44 35° ENE 22:04:38 10° N
Cosmos 1242 Rocket 3.9 22:04:20 21° NE 22:04:20 21° NE 22:05:41 10° NNE
Cosmos 1455 2.4 22:00:06 10° N 22:03:30 47° E 22:03:41 46° E
Okean 1-7 2.9 22:04:57 48° S 22:06:06 79° E 22:10:26 10° N
BREEZE-M DEB (TANK) 2.3 22:06:51 10° WNW 22:09:06 74° SSW 22:09:09 74° SSW
CZ-2C R/B 3.5 22:05:51 10° NNE 22:10:17 85° ESE 22:11:36 45° S
CZ-4C R/B 3.9 22:11:44 12° E 22:11:44 12° E 22:12:58 10° ENE
ALOS 2 3.9 22:11:53 24° E 22:13:10 29° ENE 22:16:57 10° N
Cosmos 2360 Rocket 2.4 22:10:24 10° NNW 22:16:01 61° WSW 22:18:06 37° S
RESURS DK-1 3.6 22:17:02 10° NW 22:20:32 28° WSW 22:21:10 27° SW
Cosmos 2333 Rocket 2.4 22:15:23 10° NNW 22:21:03 61° WSW 22:23:08 38° S
SL-16 R/B 3.7 22:18:46 10° NW 22:23:22 26° WSW 22:25:47 19° SW
H-2A R/B 4.2 22:21:45 10° ENE 22:23:29 13° E 22:23:29 13° E
Atlas Centaur 2 3.9 22:19:49 10° WSW 22:25:50 25° SSW 22:25:50 25° SSW
SL-08 R/B 4.4 22:25:46 34° SSW 22:28:37 82° W 22:34:45 10° N
BREEZE-M DEB (TANK) 4.4 22:16:50 10° W 22:32:06 57° NNW 22:36:09 10° ENE
Cosmos 1703 Rocket 3.5 22:32:44 53° SSW 22:33:44 82° W 22:38:14 10° N
Cosmos 2242 Rocket 4.3 22:36:20 39° ESE 22:36:49 40° E 22:41:05 10° NNE
DNEPR-1 R/B 4.2 22:31:24 10° NW 22:38:03 88° SW 22:39:56 44° SSE
Meteor 1-4 Rocket 4.2 22:41:49 20° W 22:42:08 21° WNW 22:44:29 10° NNW
Cosmos 839 Rocket 4.1 22:38:53 10° NW 22:45:36 66° WSW 22:47:42 42° S
Cosmos 2322 3.7 22:41:51 10° NNW 22:47:34 75° ENE 22:49:30 42° SE
BlueWalker 3 3.5 22:50:03 23° ENE 22:50:03 23° ENE 22:51:43 10° ENE
Cosmos 2237 Rocket 3.8 22:43:42 10° N 22:48:34 28° NE 22:52:21 14° ESE
ATLAS 2AS CENTAUR R/B 3.0 22:46:50 10° NW 22:53:16 48° WSW 22:55:16 37° SSW
Cosmos 2227 Rocket 4.0 22:53:35 15° ESE 22:54:08 15° E 22:57:20 10° ENE
ARIANE 5 R/B 3.6 22:54:59 32° WSW 22:55:39 34° W 22:59:36 10° NNW
SL-24 R/B - RUBIN 2 4.4 22:52:54 10° NW 22:59:29 74° WSW 23:01:28 45° SSE
Meteor 2-5 Rocket 4.1 23:03:32 41° SE 23:05:09 54° E 23:10:51 10° NNE
Cosmos 1703 3.5 23:06:48 52° ENE 23:06:48 52° ENE 23:10:04 10° NNE
Cosmos 2322 Rocket 4.0 23:03:57 10° WNW 23:07:40 18° W 23:09:15 16° WSW
Cosmos 1745 Rocket 4.2 23:05:11 37° SSW 23:07:49 68° W 23:14:11 10° N
Cosmos 1570 Rocket 4.1 23:02:51 10° NNW 23:08:11 70° WSW 23:09:22 52° SSW
SJ 16-02 3.4 23:05:36 13° WSW 23:08:18 22° WNW 23:11:44 10° N
PSLV R/B 3.6 23:04:41 10° NNE 23:08:52 56° E 23:08:58 56° ESE
COSMOS 2455 2.9 23:08:58 47° SSE 23:10:28 61° ESE 23:16:25 10° NE
Cosmos 2297 Rocket 2.6 23:13:10 40° SE 23:14:03 43° ESE 23:19:23 10° NE
Nadezhda 1 Rocket 4.4 23:13:26 10° NNW 23:19:31 51° W 23:21:42 36° SW
Cosmos 2181 Rocket 4.3 23:13:48 10° N 23:19:54 55° ENE 23:22:13 36° SE
Cosmos 1408 3.6 23:22:14 33° NW 23:22:14 33° NW 23:24:19 10° N
USA 281 4.2 23:19:37 27° SW 23:21:37 32° WSW 23:27:25 10° NW
COSMOS 2428 2.7 23:21:12 10° NNW 23:26:52 68° WSW 23:28:13 51° S
SL-4 R/B 3.4 23:23:16 10° NW 23:27:08 40° NNE 23:31:13 10° E
GEOS 3 Rocket 3.5 23:25:19 10° NE 23:30:28 69° SE 23:31:28 55° S
ATLAS CENTAUR R/B 4.2 23:30:48 10° NW 23:31:51 11° NW 23:32:56 10° NNW
Cosmos 2074 Rocket 4.5 23:33:38 35° SE 23:35:42 48° E 23:41:38 10° NNE
H-2A R/B 4.1 23:35:29 23° W 23:35:42 23° W 23:39:09 10° NW
CZ-3 Stage 3 4.3 23:17:18 10° W 23:35:49 30° SW 23:37:06 29° SSW
Cosmos 2219 Rocket 3.4 23:31:56 10° NW 23:36:35 27° WSW 23:37:28 25° WSW
Cosmos 1892 3.5 23:38:13 37° ENE 23:38:13 37° ENE 23:41:03 10° NNE
Cosmos 2208 Rocket 4.3 23:33:50 10° NNW 23:38:50 49° WSW 23:39:34 46° SW
Cosmos 371 Rocket 3.3 23:38:59 57° SW 23:39:54 77° WNW 23:44:45 10° NNE
Cosmos 158 Rocket 4.3 23:36:13 10° NNW 23:41:20 51° WSW 23:42:08 46° SW
Cosmos 773 Rocket 3.8 23:43:37 10° NNW 23:48:46 81° WSW 23:49:51 57° S
ALOS 2 3.8 23:49:16 28° W 23:49:27 28° W 23:53:15 10° NW
Cosmos 2151 Rocket 3.5 23:45:08 10° N 23:49:33 76° E 23:50:03 66° SE
Cosmos 2263 Rocket 4.0 23:50:27 16° ESE 23:51:49 17° E 23:55:20 10° ENE
Cosmos 1503 Rocket 4.0 23:51:55 50° SSW 23:53:19 81° WNW 23:58:40 10° NNE
